Regional Weather Roundup
Issued by NWS

Home | Current Version | Previous Version | Graphics & Text | Print | Product List | Glossary On
Versions: 1 2 3 4 5 6 7 8 9 10 11 12 13 14 15 16 17 18 19 20 21 22 23 24 25 26 27 28 29 30 31 32 33 34 35 36 37 38 39 40 41 42 43 44 45 46 47 48 49 50
000
ASUS43 KLOT 240409
RWRIL

ILLINOIS REGIONAL WEATHER ROUNDUP
NATIONAL WEATHER SERVICE CHICAGO/ROMEOVILLE IL
1100 PM CDT SAT SEP 23 2017

NOTE: "FAIR" INDICATES FEW OR NO CLOUDS BELOW 12,000 FEET WITH NO
SIGNIFICANT WEATHER AND/OR OBSTRUCTIONS TO VISIBILITY.

* THESE STATIONS ARE NOT UNDER NWS QUALITY CONTROL. THEY ALSO MAY NOT
  REPORT WEATHER SUCH AS PRECIPITATION OR FOG.

ILZ001-002-007-009-015-016-024-240500-
NORTHWEST ILLINOIS

CITY           SKY/WX    TMP DP  RH WIND       PRES   REMARKS
MOLINE         CLEAR     74  64  71 E3        30.01R
STERLING*      CLEAR     73  65  75 SE3       30.04R
SAVANNA*       CLEAR     70  67  89 CALM      30.03R
$$

ILZ003-004-008-010-011-017-018-240500-
NORTH CENTRAL ILLINOIS

CITY           SKY/WX    TMP DP  RH WIND       PRES   REMARKS
ROCKFORD       CLEAR     75  64  68 CALM      30.06R
FREEPORT*      CLEAR     73  64  72 SE7       30.06R
ROCHELLE*      CLEAR     69  64  84 SE5       30.06R
DE KALB*       CLEAR     75  66  75 SE6       30.07S
PERU*          CLEAR     77  63  61 SE6       30.05R
$$

ILZ005-006-012>014-019>023-240500-
NORTHEAST ILLINOIS

CITY           SKY/WX    TMP DP  RH WIND       PRES   REMARKS
CHICAGO-OHARE  CLEAR     76  65  68 SE7       30.06R
CHICAGO-MIDWAY CLEAR     80  67  64 E3        30.06R HX  82
AURORA         CLEAR     74  67  78 E3        30.06S
LANSING*       CLEAR     75  69  82 CALM      30.07R
JOLIET*        CLEAR     76  69  77 CALM      30.06S
WAUKEGAN       CLEAR     74  68  81 SE5       30.06R
DUPAGE AIRPORT CLEAR     74  67  78 SE5       30.06R
KANKAKEE*      CLEAR     72  66  81 SE5       30.07S
WHEELING       CLEAR     78  68  71 SE3       30.07S HX  80
MORRIS*        CLEAR     75  65  71 E7        30.04S
ROMEOVILLE*    CLEAR     76  67  72 E5        30.06S
NORTHERLY ISL    N/A     72  67  84 N1          N/A
$$

LMZ740>746-240500-
SOUTHERN LAKE MICHIGAN

STATION/POSITION SKY/WX   TEMP    WIND        PRES    VSBY  WAVE
                          AIR SEA DIR/SP/G                  HT/PER
                          (F)     (DEG/KT/KT) (MB)    (MI)  (FT/S)
SOUTHERN BUOY              74 72   80/  6/  8 1018.0          0
WILMETTE HARBOR            73 72  170/  6/  6   N/A           1/ 2
HARRISON CRIB              76     160/  4/  5   N/A
BURNHAM HARBOR             72                   N/A
CALUMET HARBOR             77      80/  1/  2 1017.4R
BURNS HARBOR               82     140/  6/ 13 1018.6R
MICHIGAN CITY              78     120/  6/  6   N/A
MICHIGAN CITY 6N           77 73  140/  4/  6   N/A           0
ST. JOSEPH                 75 73  160/  4/  4 1018.3          0
$$

ILZ025>027-034>036-040-047-049-050-058-095>099-240500-
WEST-CENTRAL ILLINOIS

CITY           SKY/WX    TMP DP  RH WIND       PRES   REMARKS
QUINCY         CLEAR     73  60  63 SE6       30.01R
GALESBURG*     CLEAR     75  63  66 E3        30.03S
MACOMB*        CLEAR     66  62  85 CALM      30.04R
JACKSONVILLE*  CLEAR     68  59  74 SE3       30.02R
PITTSFIELD*    CLEAR     73  61  65 CALM      30.03R
$$

ILZ028>032-037-038-041>044-048-051>054-059>061-240500-
CENTRAL ILLINOIS

CITY           SKY/WX    TMP DP  RH WIND       PRES   REMARKS
PONTIAC        CLEAR     73  67  83 SE6       30.06R
BLOOMINGTON    CLEAR     75  64  68 SE8       30.06S
DECATUR        CLEAR     74  61  63 S6        30.05R
PEORIA         CLEAR     78  64  61 SE5       30.03R HX  80
LACON*         CLEAR     77  64  62 SE6       30.02S
LINCOLN*       CLEAR     71  63  76 CALM      30.03S
SPRINGFIELD    CLEAR     74  62  66 S6        30.03R
TAYLORVILLE    CLEAR     74  61  63 SE7       30.03S
$$

ILZ033-039-045-046-055>057-062-063-240500-
EAST-CENTRAL ILLINOIS

CITY           SKY/WX    TMP DP  RH WIND       PRES   REMARKS
RANTOUL*       CLEAR     75  68  77 SE5       30.06S
MATTOON        CLEAR     73  63  70 SE3       30.04S
PARIS*         CLEAR     69  63  79 CALM      30.07R
$$

ILZ079-100>102-240500-
SOUTHWEST ILLINOIS

CITY           SKY/WX    TMP DP  RH WIND       PRES   REMARKS
ALTON          CLEAR     73  63  68 E3        30.02S
BELLEVILLE     CLEAR     72  63  73 CALM      30.00S
CAHOKIA*       CLEAR     72  62  71 S3        30.01R
SPARTA*        CLEAR     74  62  66 SE5       30.03R
$$

ILZ064>066-069>071-074>076-080>082-084>086-088>090-092>094-240500-
SOUTH-CENTRAL ILLINOIS

CITY           SKY/WX    TMP DP  RH WIND       PRES   REMARKS
CARBONDALE     CLEAR     70  65  84 SE5       30.01S
CAIRO*         CLEAR     68  66  94 CALM      30.01S
EFFINGHAM*     CLEAR     71  63  75 CALM      30.05F
MARION         CLEAR     77  63  61 SE3       30.03S
MT. VERNON       N/A     71  62  73 CALM      30.03S
CENTRALIA*     CLEAR     69  62  76 SE3       30.02S
SALEM*         CLEAR     72  60  67 CALM      30.03S
METROPOLIS*    CLEAR     70  67  92 CALM      30.02S
$$

ILZ067-068-072-073-078-083-087-091-240500-
SOUTHEAST ILLINOIS

CITY           SKY/WX    TMP DP  RH WIND       PRES   REMARKS
LAWRENCEVILLE  CLEAR     70  66  87 NE5       30.04S
FLORA*         CLEAR     71  62  73 CALM      30.04R
FAIRFIELD*     CLEAR     67  60  79 CALM      30.02S
HARRISBURG*    CLEAR     69  64  82 CALM      30.03S
ROBINSON*      CLEAR     63  62  96 CALM      30.05F
CARMI*         CLEAR     65  63  93 CALM      30.02S
$$

ABBREVIATIONS USED IN REMARKS
   TC - TEMPERATURE IN CELSIUS
  WCI - WIND CHILL INDEX
   HX - HEAT INDEX
  VSB - VISIBILITY
$$





USA.gov is the U.S. government's official web portal to all federal, state and local government web resources and services.